Stations météo

réclame
Mon MeteoGroup
Woensdrecht, Pays-Bas (6340): Température de l'air & dewpoint: 12.08.2018 02:00:00 - 18.08.2018 02:00:00 (CEST)Woensdrecht, Pays-Bas (6340): Température de l'air 5cm: 12.08.2018 02:00:00 - 18.08.2018 02:00:00 (CEST)Woensdrecht, Pays-Bas (6340): Vitesse du vent & gusts: 12.08.2018 02:00:00 - 18.08.2018 02:00:00 (CEST)Woensdrecht, Pays-Bas (6340): Direction du vent: 12.08.2018 02:00:00 - 18.08.2018 02:00:00 (CEST)Woensdrecht, Pays-Bas (6340): reduced air pressure: 12.08.2018 02:00:00 - 18.08.2018 02:00:00 (CEST)Woensdrecht, Pays-Bas (6340): visibility: 12.08.2018 02:00:00 - 18.08.2018 02:00:00 (CEST)Woensdrecht, Pays-Bas (6340): Quantités de précipitations: 12.08.2018 02:00:00 - 18.08.2018 02:00:00 (CEST)
Date & Time tt [°C] td [°C] tt 5cm [°C] ff [km/h] ff [knt] fx [km/h] fx [knt] dd ppp [hPa] vv [km] rr [mm]
18.08.2018 02:00:00 15,1 11,9 12,0 8 4 11 6 SW 1021,6 10 0,0
18.08.2018 01:00:00 11,1 10,7 9,8 4 2 7 4 - 1021,7 10 0,0
18.08.2018 00:00:00 11,3 10,6 10,3 0 0 4 2 N 1021,6 10 0,0
17.08.2018 23:00:00 11,9 10,9 10,6 2 1 4 2 ENE 1021,5 10 0,0
17.08.2018 22:00:00 12,9 11,3 11,4 2 1 7 4 ENE 1021,3 10 0,0
17.08.2018 21:00:00 16,2 10,7 14,5 5 3 11 6 WNW 1020,9 10 0,0
17.08.2018 20:00:00 19,4 10,5 19,3 9 5 22 12 NW 1020,4 10 0,0
17.08.2018 19:00:00 20,1 11,0 21,0 15 8 25 14 WNW 1020,0 10 0,0
17.08.2018 18:00:00 21,0 11,5 22,5 16 9 29 16 WNW 1019,9 10 0,0
17.08.2018 17:00:00 21,6 11,7 23,5 21 11 32 18 W 1019,9 10 0,0
17.08.2018 16:00:00 21,6 11,6 24,3 15 8 29 16 WNW 1019,9 10 0,0
17.08.2018 15:00:00 22,2 11,1 24,5 18 10 32 18 W 1019,9 10 0,0
17.08.2018 14:00:00 21,8 11,9 24,5 21 11 29 16 W 1019,8 10 0,0
17.08.2018 13:00:00 21,2 12,7 22,1 16 9 25 14 W 1019,4 10 0,0
17.08.2018 12:00:00 21,0 13,1 23,3 11 6 22 12 W 1019,1 10 0,0
17.08.2018 11:00:00 20,3 14,1 21,1 11 6 18 10 W 1018,9 10 0,0
17.08.2018 10:00:00 19,1 15,8 19,7 5 3 11 6 W 1018,5 10 0,0
17.08.2018 09:00:00 16,5 16,4 16,1 5 3 7 4 WSW 1017,8 10 0,0
17.08.2018 08:00:00 15,0 15,0 14,7 5 3 7 4 W 1017,3 8 0,0
17.08.2018 07:00:00 14,9 14,9 13,8 5 3 7 4 WSW 1017,2 10 0,0
17.08.2018 06:00:00 15,3 15,1 14,8 8 4 11 6 SW 1016,6 10 0,0
17.08.2018 05:00:00 15,0 15,0 14,6 2 1 7 4 - 1016,1 10 0,1
17.08.2018 04:00:00 15,4 15,3 15,3 4 2 14 8 - 1015,8 10 1,7
17.08.2018 03:00:00 15,7 15,2 15,6 5 3 11 6 SW 1015,7 10 1,7
17.08.2018 02:00:00 15,7 15,6 15,7 5 3 18 10 W 1016,0 10 3,8
17.08.2018 01:00:00 16,5 15,5 16,3 9 5 18 10 - 1015,9 9 0,5
17.08.2018 00:00:00 17,3 17,0 17,3 9 5 25 14 W 1015,4 6 3,5
16.08.2018 23:00:00 18,0 15,9 16,5 5 3 11 6 NW 1015,3 10 0,0
16.08.2018 22:00:00 17,7 16,0 16,5 5 3 7 4 NNW 1015,0 10 0,0
16.08.2018 21:00:00 18,7 16,4 17,8 4 2 18 10 NE 1014,9 10 0,0
16.08.2018 20:00:00 20,5 16,5 20,4 9 5 25 14 NW 1014,5 10 0,0
16.08.2018 19:00:00 22,0 16,6 22,9 18 10 29 16 WNW 1014,4 10 0,0
16.08.2018 18:00:00 24,2 16,2 25,1 15 8 25 14 NW 1014,5 10 0,0
16.08.2018 17:00:00 24,3 14,5 25,7 11 6 22 12 WSW 1014,4 10 0,0
16.08.2018 16:00:00 23,6 14,3 26,1 16 9 40 21 WSW 1014,6 10 0,0
16.08.2018 15:00:00 23,5 14,9 26,3 13 7 25 14 WSW 1014,8 10 0,0
16.08.2018 14:00:00 23,3 15,0 26,7 13 7 29 16 SW 1015,2 10 0,0
16.08.2018 13:00:00 21,3 15,3 22,0 15 8 25 14 SW 1015,5 10 0,0
16.08.2018 12:00:00 20,1 15,2 20,7 15 8 32 18 SW 1015,7 10 0,0
16.08.2018 11:00:00 20,1 14,2 20,7 18 10 - - SW 1015,9 10 -
16.08.2018 10:00:00 20,0 15,0 21,5 18 10 32 18 SW 1015,8 10 0,0
16.08.2018 09:00:00 19,0 15,3 19,2 16 9 29 16 SW 1015,8 10 0,0
16.08.2018 08:00:00 17,6 14,7 17,5 15 8 25 14 SW 1016,2 10 0,0
16.08.2018 07:00:00 16,4 14,4 15,7 15 8 25 14 SW 1016,5 10 0,0
16.08.2018 06:00:00 16,3 14,2 15,4 15 8 22 12 SW 1016,6 10 0,0
16.08.2018 05:00:00 16,4 13,9 15,5 13 7 25 14 SW 1016,6 10 0,0
16.08.2018 04:00:00 17,3 13,9 16,3 16 9 25 14 SW 1016,9 10 0,0
16.08.2018 03:00:00 17,1 13,8 15,8 11 6 25 14 SSW 1017,2 10 0,0
16.08.2018 02:00:00 17,1 13,8 16,1 15 8 22 12 SW 1017,6 10 0,0
16.08.2018 01:00:00 17,6 14,1 16,7 15 8 22 12 SW 1017,8 10 0,0
16.08.2018 00:00:00 18,6 14,4 17,8 16 9 25 14 SW 1018,1 10 0,0
15.08.2018 23:00:00 19,0 14,6 17,7 9 5 18 10 S 1018,0 10 0,0
15.08.2018 22:00:00 19,8 14,4 18,9 8 4 18 10 S 1018,2 10 0,0
15.08.2018 21:00:00 20,1 14,6 19,3 11 6 22 12 SSW 1018,1 10 0,0
15.08.2018 20:00:00 20,8 14,7 20,7 11 6 22 12 SSW 1018,2 10 0,0
15.08.2018 19:00:00 21,0 14,8 21,5 11 6 29 16 SSW 1018,6 10 0,0
15.08.2018 18:00:00 21,4 14,6 22,3 16 9 29 16 SW 1019,0 10 0,0
15.08.2018 17:00:00 20,7 15,7 21,3 15 8 25 14 SW 1019,1 10 0,0
15.08.2018 16:00:00 20,9 15,6 21,9 16 9 29 16 SW 1019,3 10 0,0
15.08.2018 15:00:00 20,3 15,0 21,1 18 10 32 18 WSW 1019,5 10 0,0
15.08.2018 14:00:00 20,5 15,0 22,1 24 13 32 18 WSW 1019,4 10 0,0
15.08.2018 13:00:00 20,9 14,9 22,9 16 9 32 18 SW 1019,3 10 0,0
15.08.2018 12:00:00 19,9 15,1 20,6 24 13 32 18 WSW 1019,3 10 0,0
15.08.2018 11:00:00 20,4 16,5 22,0 15 8 25 14 SW 1019,3 10 0,0
15.08.2018 10:00:00 19,0 16,5 19,3 11 6 25 14 SW 1019,1 10 0,0
15.08.2018 09:00:00 18,7 16,6 19,0 11 6 22 12 SW 1018,7 8 0,0
15.08.2018 08:00:00 18,2 16,8 18,2 11 6 18 10 SW 1018,4 7 0,0
15.08.2018 07:00:00 17,8 16,4 17,7 11 6 18 10 SW 1018,0 10 0,0
15.08.2018 06:00:00 17,5 15,7 17,3 11 6 18 10 SW 1017,7 10 0,0
15.08.2018 05:00:00 17,5 15,1 17,2 13 7 22 12 SW 1017,8 10 0,0
15.08.2018 04:00:00 17,7 14,8 17,4 13 7 25 14 SW 1017,9 10 0,0
15.08.2018 03:00:00 17,6 14,6 17,2 11 6 18 10 SW 1018,1 10 0,0
15.08.2018 02:00:00 17,7 14,5 17,0 9 5 14 8 SW 1018,4 10 0,0
15.08.2018 01:00:00 17,7 14,6 17,0 9 5 22 12 SSW 1018,5 10 0,0
15.08.2018 00:00:00 17,5 14,3 16,0 8 4 14 8 SSW 1018,3 10 0,0
14.08.2018 23:00:00 18,1 15,2 16,5 8 4 18 10 SW 1018,1 10 0,0
14.08.2018 22:00:00 18,9 14,3 18,4 16 9 22 12 WSW 1017,9 10 0,0
14.08.2018 21:00:00 19,0 13,8 18,7 15 8 32 18 W 1017,8 10 0,0
14.08.2018 20:00:00 19,4 14,0 19,3 22 12 36 19 W 1017,6 10 0,0
14.08.2018 19:00:00 20,3 12,9 20,6 22 12 36 19 W 1017,3 10 0,0
14.08.2018 18:00:00 21,7 12,9 23,4 24 13 40 21 W 1017,0 10 0,0
14.08.2018 17:00:00 21,5 14,0 22,9 26 14 43 23 W 1016,9 10 0,0
14.08.2018 16:00:00 22,4 16,0 23,6 24 13 36 19 W 1016,6 10 0,0
14.08.2018 15:00:00 20,8 16,9 21,5 22 12 36 19 WNW 1016,3 10 0,0
14.08.2018 14:00:00 20,1 16,7 20,5 18 10 29 16 W 1015,8 10 0,0
14.08.2018 13:00:00 20,8 16,5 22,0 18 10 29 16 W 1015,2 10 0,0
14.08.2018 12:00:00 21,0 15,6 22,0 15 8 22 12 W 1015,0 10 0,0
14.08.2018 11:00:00 20,9 16,6 22,5 13 7 25 14 NW 1014,4 10 0,0
14.08.2018 10:00:00 19,6 16,2 20,5 9 5 18 10 WNW 1014,1 10 0,0
14.08.2018 09:00:00 19,1 16,1 19,1 9 5 18 10 WNW 1013,3 10 0,0
14.08.2018 08:00:00 17,6 15,8 17,3 11 6 22 12 WNW 1012,7 10 0,0
14.08.2018 07:00:00 17,6 16,7 17,2 11 6 18 10 WNW 1012,0 10 4,1
14.08.2018 06:00:00 18,0 16,5 17,0 9 5 22 12 WNW 1011,1 8 0,0
14.08.2018 05:00:00 17,6 17,2 17,2 15 8 25 14 WSW 1010,6 6 0,0
14.08.2018 04:00:00 17,8 17,2 17,5 16 9 25 14 WSW 1010,3 5 0,0
14.08.2018 03:00:00 17,3 16,8 16,9 15 8 22 12 WSW 1010,0 7 0,0
14.08.2018 02:00:00 17,6 16,8 17,3 16 9 25 14 WSW 1009,9 8 0,0
14.08.2018 01:00:00 17,7 16,5 17,4 16 9 25 14 WSW 1009,6 10 0,0
14.08.2018 00:00:00 18,6 17,0 18,4 18 10 29 16 WSW 1008,9 10 0,0
13.08.2018 23:00:00 18,7 16,9 18,4 13 7 22 12 WSW 1008,6 10 0,0
13.08.2018 22:00:00 18,3 15,7 17,1 13 7 22 12 WSW 1008,3 10 0,0
13.08.2018 21:00:00 18,7 15,6 18,3 15 8 25 14 W 1007,9 10 0,0
13.08.2018 20:00:00 19,5 15,1 19,3 22 12 36 19 W 1007,4 10 0,0
13.08.2018 19:00:00 20,2 15,8 20,4 18 10 32 18 W 1006,9 10 0,0
13.08.2018 18:00:00 20,3 15,6 20,6 21 11 36 19 W 1006,7 10 0,0
13.08.2018 17:00:00 20,5 16,8 20,4 24 13 32 18 W 1006,3 10 0,1
13.08.2018 16:00:00 20,7 17,9 21,4 21 11 29 16 W 1006,3 10 1,0
13.08.2018 15:00:00 18,3 16,3 18,5 21 11 40 21 WSW 1006,4 6 1,0
13.08.2018 14:00:00 19,8 16,2 20,1 34 18 43 23 W 1005,9 10 1,5
13.08.2018 13:00:00 20,7 15,6 21,4 18 10 36 19 SW 1005,7 10 0,0
13.08.2018 12:00:00 19,1 17,2 19,4 16 9 25 14 SW 1005,9 10 0,1
13.08.2018 11:00:00 19,1 16,4 19,8 13 7 25 14 SW 1006,0 10 0,0
13.08.2018 10:00:00 18,8 17,0 19,5 9 5 18 10 SW 1005,8 10 0,0
13.08.2018 09:00:00 18,1 17,0 18,4 9 5 25 14 SW 1005,6 10 0,1
13.08.2018 08:00:00 17,8 16,7 17,6 15 8 22 12 SW 1005,9 10 0,6
13.08.2018 07:00:00 18,6 15,8 17,5 8 4 14 8 S 1005,5 10 0,0
13.08.2018 06:00:00 17,2 16,8 16,6 2 1 7 4 - 1005,3 10 0,0
13.08.2018 05:00:00 17,8 17,0 16,6 2 1 7 4 S 1006,0 10 0,0
13.08.2018 04:00:00 18,7 17,0 17,9 4 2 7 4 SW 1006,1 10 0,0
13.08.2018 03:00:00 19,2 17,4 18,6 8 4 18 10 WSW 1006,9 10 0,0
13.08.2018 02:00:00 18,7 15,7 18,0 2 1 7 4 - 1007,2 10 0,0
13.08.2018 01:00:00 21,3 13,2 19,6 8 4 11 6 S 1007,7 10 0,0
13.08.2018 00:00:00 20,9 13,2 19,3 4 2 7 4 SSE 1007,8 10 0,0
12.08.2018 23:00:00 21,3 13,7 19,7 8 4 11 6 ESE 1008,1 10 0,0
12.08.2018 22:00:00 19,9 15,0 19,1 4 2 7 4 E 1008,8 10 0,0
12.08.2018 21:00:00 21,5 14,1 20,8 4 2 7 4 - 1009,0 10 0,0
12.08.2018 20:00:00 24,4 13,4 24,1 4 2 14 8 SSW 1009,2 10 0,0
12.08.2018 19:00:00 25,6 11,4 25,6 9 5 22 12 SW 1009,8 10 0,0
12.08.2018 18:00:00 26,2 10,2 26,6 11 6 25 14 SSW 1010,4 10 0,0
12.08.2018 17:00:00 26,6 10,3 28,4 13 7 32 18 S 1011,0 10 0,0
12.08.2018 16:00:00 26,9 9,9 30,6 13 7 29 16 S 1011,9 10 0,0
12.08.2018 15:00:00 26,5 10,1 28,4 15 8 32 18 S 1012,7 10 0,0
12.08.2018 14:00:00 25,8 10,1 27,6 15 8 29 16 SSW 1013,4 10 0,0
12.08.2018 13:00:00 25,0 9,9 28,0 15 8 32 18 S 1014,4 10 0,0
12.08.2018 12:00:00 24,1 10,1 27,1 16 9 29 16 SW 1014,9 10 0,0
12.08.2018 11:00:00 22,0 11,1 24,5 15 8 29 16 SSW 1015,3 10 0,0
12.08.2018 10:00:00 20,4 10,2 21,5 13 7 22 12 S 1015,7 10 0,0
12.08.2018 09:00:00 18,8 10,8 19,1 9 5 22 12 S 1016,1 10 0,0
12.08.2018 08:00:00 17,3 10,7 17,0 8 4 14 8 SSE 1016,3 10 0,0
12.08.2018 07:00:00 15,8 10,5 15,4 5 3 11 6 SE 1016,6 10 0,0
12.08.2018 06:00:00 15,7 10,2 15,2 8 4 11 6 SSE 1016,9 10 0,0
12.08.2018 05:00:00 15,4 10,2 14,9 8 4 11 6 SSE 1017,6 10 0,0
12.08.2018 04:00:00 14,9 10,5 14,3 5 3 11 6 SSE 1018,4 10 0,0
12.08.2018 03:00:00 14,1 10,2 12,9 5 3 11 6 SSE 1019,0 10 0,0
12.08.2018 02:00:00 13,2 10,0 11,3 4 2 11 6 E 1019,7 10 0,0

tt = Température de l'air
td = dewpoint
tt 5cm = Température de l'air 5cm
ff = Vitesse du vent
fx = gusts
dd = Direction du vent
ppp = reduced air pressure
vv = visibility
rr = Quantités de précipitations

stations d'obs. à proximité